sat.trackr.live / text

‹ back to catalog

STARLINK-33576

NORAD 62775 · 2025-015T

PAYLOAD ACTIVE UNKNOWN

§ Identity

Operator
Country
US
Launch date
2025-01-21
Launch site
AFWTR
Launch vehicle
Mass (kg)
RCS (m²)

Purposes: comms

External: N2YO · Heavens-Above · Gunter

§ Orbital elements

Epoch: 2026-09-21T20:28:10.225632Z

Period
93.85 min
Inclination
53.1585°
Eccentricity
0.0001541
Mean motion
15.34404298 rev/d
Perigee alt
461.6 km
Apogee alt
463.7 km
Semi-major
6,840.8 km
B*
3.7188e-4
RAAN
127.1089°
Arg perigee
113.2802°
Mean anomaly
246.8363°
Rev number
9,451

§ Raw data

STARLINK-335761 62775U 25015T   26264.85289613  .00012210  00000+0  37188-3 0  99972 62775  53.1585 127.1089 0001541 113.2802 246.8363 15.34404298 94513

JSON: /api/v1/satellites/62775 · /tle

For live sub-satellite position, see the globe view (requires WebGL).

§ Visibility from observer

Set your observer location to see the next 7 days of passes ≥ 10°. The values pass through the URL so the page stays shareable.

No JS? Fill the form by hand. The geolocation button needs JavaScript.